Fort Myers, FL

12:50 PM EDT on March 28, 2017 (GMT -0400)
Page

Weather History for KFMY - July, 2013

Change the Weather History Date:

Tuesday, July 16, 2013

  Actual Average Record
Temperature  
Mean Temperature 81 °F 83 °F  
Max Temperature 87 °F 92 °F 100 °F (1998)
Min Temperature 74 °F 75 °F 69 °F (1928)
Degree Days  
Heating Degree Days 0 0  
Month to date heating degree days 0 0  
Since 1 June heating degree days 0 0  
Since 1 July heating degree days 0 0  
Cooling Degree Days 16 18  
Month to date cooling degree days 260 288  
Year to date cooling degree days 1903 1879  
Since 1 June cooling degree days 765 813  
Growing Degree Days 28 (Base 50)    
Moisture  
Dew Point 71 °F    
Average Humidity 83    
Maximum Humidity 93    
Minimum Humidity 61    
Precipitation  
Precipitation 0.06 in 0.27 in 1.58 in (1932)
Month to date precipitation 7.66 4.72  
Year to date precipitation 28.15 26.61  
Sea Level Pressure  
Sea Level Pressure 30.09 in    
Wind  
Wind Speed 9 mph (ENE)    
Max Wind Speed 26 mph    
Max Gust Speed 37 mph    
Visibility 10 miles    
Events Rain    
T = Trace of Precipitation, MM = Missing Value Source: NWS Daily Summary

Daily Weather History Graph

Daily Weather History Graph

Search for Another Location

Airport or City:

Trip Planner

Search our weather history database for the weather conditions in past years. The results will help you decide how hot, cold, wet, or windy it might be!

Date:

Astronomy

Jul. 16, 2013 Rise Set
Actual Time 6:44 AM EDT 8:22 PM EDT
Civil Twilight 6:18 AM EDT 8:48 PM EDT
Nautical Twilight 5:47 AM EDT 9:18 PM EDT
Astronomical Twilight 5:15 AM EDT 9:51 PM EDT
Moon 2:15 PM EDT (7/16) 12:56 AM EDT (7/16)
Length of Visible Light 14h 29m
Length of Day
13h 38m
First Quarter, 56% of the Moon is Illuminated
Jul 16
First Quarter
Jul 22
Full
Jul 29
Last Quarter
Aug 6
New
Aug 14
First Quarter

Hourly Weather History & Observations

Time (EDT) Temp. Heat Index Dew Point Humidity Pressure Visibility Wind Dir Wind Speed Gust Speed Precip Events Conditions
12:53 AM 75.0 °F - 72.0 °F 90% 30.10 in 10.0 mi East 5.8 mph - N/A   Clear
1:53 AM 75.0 °F - 72.0 °F 90% 30.09 in 10.0 mi East 4.6 mph - N/A   Clear
2:53 AM 73.9 °F - 72.0 °F 93% 30.07 in 10.0 mi East 3.5 mph - N/A   Clear
3:53 AM 73.9 °F - 72.0 °F 93% 30.07 in 10.0 mi ENE 4.6 mph - N/A   Clear
4:53 AM 73.9 °F - 72.0 °F 93% 30.06 in 10.0 mi ENE 6.9 mph - N/A   Clear
5:53 AM 73.9 °F - 72.0 °F 93% 30.06 in 10.0 mi ENE 5.8 mph - N/A   Clear
6:53 AM 73.9 °F - 72.0 °F 93% 30.07 in 10.0 mi ENE 5.8 mph - N/A   Clear
7:53 AM 75.9 °F - 72.0 °F 87% 30.09 in 10.0 mi ENE 8.1 mph - N/A   Clear
8:53 AM 79.0 °F - 72.0 °F 79% 30.10 in 10.0 mi East 9.2 mph - N/A   Clear
9:53 AM 81.0 °F 84.9 °F 71.1 °F 72% 30.10 in 10.0 mi East 12.7 mph - N/A   Clear
10:53 AM 82.9 °F 87.5 °F 71.1 °F 67% 30.11 in 10.0 mi ESE 12.7 mph - N/A   Scattered Clouds
11:53 AM 84.9 °F 89.4 °F 70.0 °F 61% 30.10 in 10.0 mi East 12.7 mph - N/A   Mostly Cloudy
12:53 PM 75.0 °F - 70.0 °F 84% 30.13 in 7.0 mi East 12.7 mph 24.2 mph 0.06 in Rain Light Rain
1:53 PM 75.0 °F - 72.0 °F 90% 30.13 in 10.0 mi ENE 9.2 mph - 0.00 in   Overcast
2:16 PM 75.2 °F - 73.4 °F 94% 30.11 in 10.0 mi ENE 11.5 mph - N/A   Overcast
2:53 PM 77.0 °F - 73.0 °F 88% 30.11 in 10.0 mi ENE 12.7 mph - 0.00 in   Mostly Cloudy
3:53 PM 82.0 °F 86.3 °F 71.1 °F 69% 30.08 in 10.0 mi East 12.7 mph 18.4 mph N/A   Clear
4:53 PM 82.0 °F 86.7 °F 72.0 °F 71% 30.07 in 10.0 mi East 8.1 mph - N/A   Mostly Cloudy
5:53 PM 80.1 °F 83.6 °F 71.1 °F 74% 30.07 in 10.0 mi East 12.7 mph - N/A   Clear
6:53 PM 81.0 °F 84.1 °F 69.1 °F 67% 30.07 in 10.0 mi East 10.4 mph - N/A   Clear
7:53 PM 80.1 °F 83.2 °F 70.0 °F 71% 30.09 in 10.0 mi ENE 9.2 mph - N/A   Clear
8:53 PM 77.0 °F - 71.1 °F 82% 30.12 in 10.0 mi East 9.2 mph - N/A   Clear
9:53 PM 75.9 °F - 71.1 °F 85% 30.11 in 10.0 mi ENE 6.9 mph - N/A   Clear
10:53 PM 75.0 °F - 71.1 °F 87% 30.12 in 10.0 mi ENE 8.1 mph - N/A   Clear
11:53 PM 75.0 °F - 72.0 °F 90% 30.13 in 10.0 mi ENE 8.1 mph - N/A   Scattered Clouds